When you browse on this site, cookies collect data to enhance your experience and personalize the content and advertising you see.
Visit our Privacy Policy to learn more. By continuing to use the site, you agree to this use of cookies and data.
  • In Hungary
  • List of Countries
  • For 7 days
  • Water Temperature
  • Weather Map
  • News
  • Weather Widgets
  • user-avatar
    Login

    Hourly Weather Raslovkovo

    Today, 19 September, Thursday

    Time Temperature Precipitation Wind Pressure Humidity
    00:00 +4°C° 0 mm 3 mps 738 mmHg 96%
    01:00 +4°C° 0 mm 3 mps 738 mmHg 96%
    02:00 +4°C° 0 mm 3 mps 739 mmHg 94%
    03:00 +4°C° 0 mm 3 mps 739 mmHg 93%
    04:00 +4°C° 0 mm 3 mps 740 mmHg 93%
    05:00 +4°C° 0 mm 3 mps 740 mmHg 92%
    06:00 +5°C° 0 mm 3 mps 741 mmHg 90%
    07:00 +5°C° 0 mm 3 mps 741 mmHg 88%
    08:00 +5°C° 0 mm 4 mps 742 mmHg 86%
    09:00 +5°C° 0.1 mm 4 mps 742 mmHg 85%
    10:00 +5°C° 0.1 mm 4 mps 743 mmHg 84%
    11:00 +5°C° 0.1 mm 3 mps 743 mmHg 83%
    12:00 +7°C° 0.1 mm 3 mps 743 mmHg 80%
    13:00 +7°C° 0.1 mm 3 mps 744 mmHg 76%
    14:00 +7°C° 0.1 mm 2 mps 744 mmHg 73%
    15:00 +7°C° 0.1 mm 2 mps 744 mmHg 75%
    16:00 +7°C° 0.1 mm 2 mps 745 mmHg 76%
    17:00 +7°C° 0.1 mm 1 mps 745 mmHg 77%
    18:00 +6°C° 0 mm 1 mps 745 mmHg 78%
    19:00 +5°C° 0 mm 1 mps 745 mmHg 80%
    20:00 +4°C° 0 mm 1 mps 746 mmHg 81%
    21:00 +4°C° 0 mm 1 mps 746 mmHg 81%
    22:00 +4°C° 0 mm 1 mps 746 mmHg 82%
    23:00 +4°C° 0 mm 1 mps 746 mmHg 82%

    Tomorrow, 20 September, Friday

    Time Temperature Precipitation Wind Pressure Humidity
    00:00 +4°C° 0 mm 1 mps 746 mmHg 83%
    01:00 +4°C° 0 mm 1 mps 746 mmHg 84%
    02:00 +4°C° 0 mm 1 mps 746 mmHg 85%
    03:00 +3°C° 0 mm 1 mps 746 mmHg 87%
    04:00 +3°C° 0 mm 1 mps 746 mmHg 88%
    05:00 +3°C° 0 mm 1 mps 746 mmHg 89%
    06:00 +4°C° 0 mm 1 mps 746 mmHg 86%
    07:00 +5°C° 0 mm 1 mps 746 mmHg 82%
    08:00 +6°C° 0 mm 1 mps 746 mmHg 79%
    09:00 +7°C° 0 mm 1 mps 746 mmHg 72%
    10:00 +7°C° 0 mm 2 mps 746 mmHg 66%
    11:00 +8°C° 0 mm 2 mps 746 mmHg 60%
    12:00 +8°C° 0 mm 2 mps 746 mmHg 58%
    13:00 +9°C° 0 mm 2 mps 746 mmHg 57%
    14:00 +9°C° 0 mm 2 mps 746 mmHg 55%
    15:00 +8°C° 0.1 mm 2 mps 746 mmHg 63%
    16:00 +7°C° 0.1 mm 2 mps 746 mmHg 70%
    17:00 +6°C° 0.1 mm 2 mps 746 mmHg 78%
    18:00 +5°C° 0 mm 2 mps 746 mmHg 83%
    19:00 +4°C° 0 mm 2 mps 746 mmHg 89%
    20:00 +3°C° 0 mm 2 mps 747 mmHg 94%
    21:00 +3°C° 0 mm 2 mps 747 mmHg 95%
    22:00 +2°C° 0 mm 2 mps 747 mmHg 95%
    23:00 +2°C° 0 mm 2 mps 747 mmHg 96%

    Day after tomorrow, 21 September, Saturday

    Time Temperature Precipitation Wind Pressure Humidity
    00:00 +1°C° 0 mm 2 mps 747 mmHg 96%
    01:00 +1°C° 0 mm 2 mps 747 mmHg 95%
    02:00 -1°C° 0 mm 2 mps 747 mmHg 95%
    03:00 -1°C° 0 mm 2 mps 746 mmHg 94%
    04:00 -1°C° 0 mm 2 mps 746 mmHg 94%
    05:00 -2°C° 0 mm 2 mps 746 mmHg 94%
    06:00 +1°C° 0 mm 2 mps 746 mmHg 88%
    07:00 +2°C° 0 mm 2 mps 746 mmHg 83%
    08:00 +4°C° 0 mm 2 mps 746 mmHg 77%
    09:00 +4°C° 0 mm 3 mps 745 mmHg 71%
    10:00 +5°C° 0 mm 3 mps 745 mmHg 65%
    11:00 +6°C° 0 mm 4 mps 745 mmHg 59%
    12:00 +6°C° 0 mm 4 mps 744 mmHg 67%
    13:00 +5°C° 0 mm 4 mps 744 mmHg 75%
    14:00 +5°C° 0 mm 5 mps 743 mmHg 83%
    15:00 +4°C° 0.2 mm 4 mps 742 mmHg 86%
    16:00 +4°C° 0.2 mm 4 mps 741 mmHg 89%
    17:00 +4°C° 0.2 mm 4 mps 741 mmHg 92%
    18:00 +4°C° 0.2 mm 4 mps 740 mmHg 93%
    19:00 +4°C° 0.2 mm 4 mps 739 mmHg 93%
    20:00 +4°C° 0.2 mm 4 mps 738 mmHg 94%
    21:00 +4°C° 0.4 mm 4 mps 737 mmHg 95%
    22:00 +4°C° 0.4 mm 4 mps 736 mmHg 95%
    23:00 +4°C° 0.4 mm 3 mps 735 mmHg 96%

    22 September, Sunday

    Time Temperature Precipitation Wind Pressure Humidity
    00:00 +4°C° 0.4 mm 4 mps 734 mmHg 96%
    01:00 +4°C° 0.4 mm 4 mps 733 mmHg 96%
    02:00 +4°C° 0.4 mm 4 mps 732 mmHg 96%
    03:00 +3°C° 0.3 mm 5 mps 732 mmHg 94%
    04:00 +2°C° 0.3 mm 6 mps 731 mmHg 92%
    05:00 +2°C° 0.3 mm 7 mps 731 mmHg 91%
    06:00 0°C° 0.2 mm 8 mps 732 mmHg 90%
    07:00 0°C° 0.2 mm 9 mps 732 mmHg 90%
    08:00 0°C° 0.2 mm 10 mps 733 mmHg 90%
    09:00 -1°C° 0.3 mm 11 mps 734 mmHg 84%
    10:00 +1°C° 0.3 mm 11 mps 735 mmHg 78%
    11:00 +2°C° 0.3 mm 11 mps 736 mmHg 73%
    12:00 +2°C° 0.1 mm 10 mps 737 mmHg 72%
    13:00 +2°C° 0.1 mm 10 mps 738 mmHg 72%
    14:00 +2°C° 0.1 mm 9 mps 740 mmHg 71%
    15:00 +2°C° 0.1 mm 8 mps 741 mmHg 73%
    16:00 +2°C° 0.1 mm 7 mps 742 mmHg 76%
    17:00 +2°C° 0.1 mm 6 mps 742 mmHg 78%
    18:00 +2°C° 0.1 mm 6 mps 743 mmHg 82%
    19:00 +1°C° 0.1 mm 6 mps 744 mmHg 86%
    20:00 +1°C° 0.1 mm 6 mps 744 mmHg 90%
    21:00 +1°C° 0.1 mm 5 mps 745 mmHg 89%
    22:00 0°C° 0.1 mm 5 mps 745 mmHg 88%
    23:00 0°C° 0.1 mm 4 mps 745 mmHg 87%

    23 September, Monday

    Time Temperature Precipitation Wind Pressure Humidity
    00:00 -1°C° 0 mm 4 mps 746 mmHg 88%
    01:00 -1°C° 0 mm 4 mps 746 mmHg 89%
    02:00 -1°C° 0 mm 4 mps 746 mmHg 90%
    03:00 -1°C° 0 mm 4 mps 747 mmHg 90%
    04:00 -1°C° 0 mm 4 mps 747 mmHg 90%
    05:00 -1°C° 0 mm 4 mps 747 mmHg 89%
    06:00 -1°C° 0 mm 4 mps 747 mmHg 87%
    07:00 0°C° 0 mm 4 mps 748 mmHg 85%
    08:00 0°C° 0 mm 4 mps 748 mmHg 83%
    09:00 +1°C° 0 mm 4 mps 748 mmHg 75%
    10:00 +4°C° 0 mm 4 mps 748 mmHg 68%
    11:00 +5°C° 0 mm 4 mps 748 mmHg 60%
    12:00 +5°C° 0 mm 4 mps 748 mmHg 61%
    13:00 +6°C° 0 mm 5 mps 747 mmHg 62%
    14:00 +6°C° 0 mm 5 mps 747 mmHg 62%
    15:00 +5°C° 0 mm 4 mps 747 mmHg 67%
    16:00 +4°C° 0 mm 3 mps 747 mmHg 71%
    17:00 +3°C° 0 mm 3 mps 747 mmHg 76%
    18:00 +2°C° 0 mm 3 mps 747 mmHg 81%
    19:00 +1°C° 0 mm 3 mps 747 mmHg 87%
    20:00 0°C° 0 mm 3 mps 747 mmHg 93%
    21:00 0°C° 0 mm 3 mps 747 mmHg 94%
    22:00 +1°C° 0 mm 2 mps 747 mmHg 95%
    23:00 -1°C° 0 mm 2 mps 747 mmHg 96%

    24 September, Tuesday

    Time Temperature Precipitation Wind Pressure Humidity
    00:00 -1°C° 0 mm 2 mps 747 mmHg 96%
    01:00 -1°C° 0 mm 2 mps 747 mmHg 96%
    02:00 -2°C° 0 mm 2 mps 747 mmHg 96%
    03:00 -2°C° 0 mm 2 mps 747 mmHg 96%
    04:00 -2°C° 0 mm 2 mps 747 mmHg 96%
    05:00 -2°C° 0 mm 2 mps 747 mmHg 96%
    06:00 -1°C° 0 mm 2 mps 747 mmHg 89%
    07:00 +1°C° 0 mm 2 mps 747 mmHg 83%
    08:00 +4°C° 0 mm 1 mps 747 mmHg 76%
    09:00 +5°C° 0 mm 1 mps 747 mmHg 70%
    10:00 +6°C° 0 mm 1 mps 747 mmHg 65%
    11:00 +7°C° 0 mm 1 mps 747 mmHg 59%
    12:00 +7°C° 0 mm 1 mps 747 mmHg 58%
    13:00 +7°C° 0 mm 1 mps 747 mmHg 58%
    14:00 +7°C° 0 mm 1 mps 746 mmHg 57%
    15:00 +7°C° 0 mm 1 mps 746 mmHg 60%
    16:00 +6°C° 0 mm 1 mps 746 mmHg 63%
    17:00 +6°C° 0 mm 1 mps 746 mmHg 66%
    18:00 +5°C° 0 mm 1 mps 747 mmHg 66%
    19:00 +5°C° 0 mm 1 mps 747 mmHg 66%
    20:00 +5°C° 0 mm 1 mps 747 mmHg 67%
    21:00 +5°C° 0 mm 1 mps 746 mmHg 67%
    22:00 +4°C° 0 mm 1 mps 746 mmHg 68%
    23:00 +4°C° 0 mm 1 mps 746 mmHg 68%
    Show more